Time,TemperatureF,DewpointF,PressureIn,WindDirection,WindDirectionDegrees,WindSpeedMPH,WindSpeedGustMPH,Humidity,HourlyPrecipIn,Conditions,Clouds,dailyrainin,SoftwareType,DateUTC
2013-04-03 00:00:00,51.5,27.9,29.96,SSE,163,2.0,2.0,40,0.00,,,0.00,Wunderground v.1.15,2013-04-03 06:00:00,
2013-04-03 00:10:00,50.7,29.0,29.97,SE,146,3.0,3.0,43,0.00,,,0.00,Wunderground v.1.15,2013-04-03 06:10:00,
2013-04-03 00:20:00,50.4,28.1,29.97,ENE,77,2.0,2.0,42,0.00,,,0.00,Wunderground v.1.15,2013-04-03 06:20:00,
2013-04-03 00:25:00,50.2,30.2,29.97,SSE,165,3.0,8.0,46,0.00,,,0.00,Wunderground v.1.15,2013-04-03 06:25:00,
2013-04-03 00:35:00,49.6,29.6,29.97,SSE,159,6.0,6.0,46,0.00,,,0.00,Wunderground v.1.15,2013-04-03 06:35:00,
2013-04-03 00:40:00,49.5,29.6,29.97,ESE,117,5.0,5.0,46,0.00,,,0.00,Wunderground v.1.15,2013-04-03 06:40:00,
2013-04-03 00:50:00,49.4,29.5,29.97,SSW,194,2.0,2.0,46,0.00,,,0.00,Wunderground v.1.15,2013-04-03 06:50:00,
2013-04-03 01:00:00,49.1,29.2,29.97,SE,138,2.0,2.0,46,0.00,,,0.00,Wunderground v.1.15,2013-04-03 07:00:00,
2013-04-03 01:10:00,48.6,29.8,29.97,South,179,1.0,5.0,48,0.00,,,0.00,Wunderground v.1.15,2013-04-03 07:10:00,
2013-04-03 01:15:00,48.1,29.8,29.98,SSE,158,2.0,5.0,49,0.00,,,0.00,Wunderground v.1.15,2013-04-03 07:15:00,
2013-04-03 01:25:00,47.1,29.9,29.98,SW,224,3.0,3.0,51,0.00,,,0.00,Wunderground v.1.15,2013-04-03 07:25:00,
2013-04-03 01:35:00,46.2,30.0,29.98,SSE,149,3.0,4.0,53,0.00,,,0.00,Wunderground v.1.15,2013-04-03 07:35:00,
2013-04-03 01:45:00,45.9,29.7,29.99,SE,146,3.0,4.0,53,0.00,,,0.00,Wunderground v.1.15,2013-04-03 07:45:00,
2013-04-03 01:50:00,45.7,29.5,29.99,SE,145,3.0,4.0,53,0.00,,,0.00,Wunderground v.1.15,2013-04-03 07:50:00,
2013-04-03 02:00:00,45.6,29.4,29.99,SSE,160,3.0,4.0,53,0.00,,,0.00,Wunderground v.1.15,2013-04-03 08:00:00,
2013-04-03 02:10:00,45.6,29.4,29.99,East,93,2.0,2.0,53,0.00,,,0.00,Wunderground v.1.15,2013-04-03 08:10:00,
2013-04-03 02:15:00,45.4,29.7,29.99,ESE,104,1.0,2.0,54,0.00,,,0.00,Wunderground v.1.15,2013-04-03 08:15:00,
2013-04-03 02:20:00,45.2,29.5,29.99,ESE,115,0.0,0.0,54,0.00,,,0.00,Wunderground v.1.15,2013-04-03 08:20:00,
2013-04-03 02:30:00,44.6,29.0,30.00,NNW,340,0.0,1.0,54,0.00,,,0.00,Wunderground v.1.15,2013-04-03 08:30:00,
2013-04-03 02:35:00,44.5,29.3,30.00,WNW,288,1.0,1.0,55,0.00,,,0.00,Wunderground v.1.15,2013-04-03 08:35:00,
2013-04-03 02:45:00,44.7,29.5,30.00,NNW,329,1.0,1.0,55,0.00,,,0.00,Wunderground v.1.15,2013-04-03 08:45:00,
2013-04-03 02:55:00,44.6,29.4,30.00,NE,55,0.0,0.0,55,0.00,,,0.00,Wunderground v.1.15,2013-04-03 08:55:00,
2013-04-03 03:00:00,44.4,28.8,30.00,NW,306,0.0,0.0,54,0.00,,,0.00,Wunderground v.1.15,2013-04-03 09:00:00,
2013-04-03 03:05:00,44.3,28.2,30.00,NNW,340,0.0,0.0,53,0.00,,,0.00,Wunderground v.1.15,2013-04-03 09:05:00,
2013-04-03 03:15:00,43.5,27.9,30.00,North,5,2.0,3.0,54,0.00,,,0.00,Wunderground v.1.15,2013-04-03 09:15:00,
2013-04-03 03:25:00,42.7,28.1,30.00,NNW,332,2.0,2.0,56,0.00,,,0.00,Wunderground v.1.15,2013-04-03 09:25:00,
2013-04-03 03:30:00,42.4,27.8,30.00,NNW,337,1.0,1.0,56,0.00,,,0.00,Wunderground v.1.15,2013-04-03 09:30:00,
2013-04-03 03:35:00,42.1,27.9,30.00,NW,319,2.0,2.0,57,0.00,,,0.00,Wunderground v.1.15,2013-04-03 09:35:00,
2013-04-03 03:40:00,41.8,28.1,30.00,NNW,333,2.0,3.0,58,0.00,,,0.00,Wunderground v.1.15,2013-04-03 09:40:00,
2013-04-03 03:50:00,41.0,28.2,30.01,North,351,4.0,4.0,60,0.00,,,0.00,Wunderground v.1.15,2013-04-03 09:50:00,
2013-04-03 03:55:00,40.7,28.3,30.01,NW,321,3.0,4.0,61,0.00,,,0.00,Wunderground v.1.15,2013-04-03 09:55:00,
2013-04-03 04:00:00,40.5,28.1,30.01,North,10,2.0,2.0,61,0.00,,,0.00,Wunderground v.1.15,2013-04-03 10:00:00,
2013-04-03 04:10:00,40.2,28.2,30.02,NNW,340,2.0,2.0,62,0.00,,,0.00,Wunderground v.1.15,2013-04-03 10:10:00,
2013-04-03 04:15:00,40.1,28.1,30.02,North,11,1.0,2.0,62,0.00,,,0.00,Wunderground v.1.15,2013-04-03 10:15:00,
2013-04-03 04:20:00,40.0,28.0,30.02,North,9,0.0,0.0,62,0.00,,,0.00,Wunderground v.1.15,2013-04-03 10:20:00,
2013-04-03 04:30:00,39.4,27.8,30.03,SSW,207,0.0,0.0,63,0.00,,,0.00,Wunderground v.1.15,2013-04-03 10:30:00,
2013-04-03 04:40:00,39.1,27.9,30.03,WSW,241,0.0,0.0,64,0.00,,,0.00,Wunderground v.1.15,2013-04-03 10:40:00,
2013-04-03 04:45:00,39.1,27.9,30.03,SW,229,0.0,0.0,64,0.00,,,0.00,Wunderground v.1.15,2013-04-03 10:45:00,
2013-04-03 04:55:00,38.7,27.9,30.04,WSW,253,0.0,0.0,65,0.00,,,0.00,Wunderground v.1.15,2013-04-03 10:55:00,
2013-04-03 05:00:00,38.5,27.7,30.04,WNW,297,0.0,0.0,65,0.00,,,0.00,Wunderground v.1.15,2013-04-03 11:00:00,
2013-04-03 05:10:00,38.5,28.1,30.04,WNW,297,0.0,0.0,66,0.00,,,0.00,Wunderground v.1.15,2013-04-03 11:10:00,
2013-04-03 05:15:00,38.3,27.9,30.04,WNW,297,0.0,0.0,66,0.00,,,0.00,Wunderground v.1.15,2013-04-03 11:15:00,
2013-04-03 05:25:00,38.4,28.0,30.04,WNW,298,0.0,1.0,66,0.00,,,0.00,Wunderground v.1.15,2013-04-03 11:25:00,
2013-04-03 05:35:00,38.5,28.1,30.05,NW,314,0.0,2.0,66,0.00,,,0.00,Wunderground v.1.15,2013-04-03 11:35:00,
2013-04-03 05:40:00,38.6,28.2,30.05,West,273,0.0,0.0,66,0.00,,,0.00,Wunderground v.1.15,2013-04-03 11:40:00,
2013-04-03 05:45:00,38.6,28.6,30.05,NW,304,1.0,2.0,67,0.00,,,0.00,Wunderground v.1.15,2013-04-03 11:45:00,
2013-04-03 05:55:00,38.5,28.5,30.06,NW,316,1.0,2.0,67,0.00,,,0.00,Wunderground v.1.15,2013-04-03 11:55:00,
2013-04-03 06:00:00,38.6,28.2,30.06,WNW,300,1.0,1.0,66,0.00,,,0.00,Wunderground v.1.15,2013-04-03 12:00:00,
2013-04-03 06:10:00,38.5,28.1,30.06,NNE,25,1.0,1.0,66,0.00,,,0.00,Wunderground v.1.15,2013-04-03 12:10:00,
2013-04-03 06:20:00,38.3,27.9,30.07,NNW,340,0.0,0.0,66,0.00,,,0.00,Wunderground v.1.15,2013-04-03 12:20:00,
2013-04-03 06:25:00,38.1,27.7,30.07,NNW,340,0.0,0.0,66,0.00,,,0.00,Wunderground v.1.15,2013-04-03 12:25:00,
2013-04-03 06:35:00,37.8,27.8,30.07,NNW,340,0.0,0.0,67,0.00,,,0.00,Wunderground v.1.15,2013-04-03 12:35:00,
2013-04-03 06:40:00,37.6,28.0,30.08,WNW,287,0.0,0.0,68,0.00,,,0.00,Wunderground v.1.15,2013-04-03 12:40:00,
2013-04-03 06:50:00,37.7,28.1,30.08,NNE,12,0.0,0.0,68,0.00,,,0.00,Wunderground v.1.15,2013-04-03 12:50:00,
2013-04-03 06:55:00,37.7,28.1,30.08,North,10,0.0,0.0,68,0.00,,,0.00,Wunderground v.1.15,2013-04-03 12:55:00,
2013-04-03 07:00:00,37.7,28.1,30.08,North,359,0.0,0.0,68,0.00,,,0.00,Wunderground v.1.15,2013-04-03 13:00:00,
2013-04-03 07:10:00,37.7,28.4,30.08,NNE,32,0.0,0.0,69,0.00,,,0.00,Wunderground v.1.15,2013-04-03 13:10:00,
2013-04-03 07:15:00,37.9,28.3,30.09,North,3,0.0,0.0,68,0.00,,,0.00,Wunderground v.1.15,2013-04-03 13:15:00,
2013-04-03 07:25:00,38.2,28.6,30.09,North,349,0.0,1.0,68,0.00,,,0.00,Wunderground v.1.15,2013-04-03 13:25:00,
2013-04-03 07:30:00,38.5,28.9,30.09,NNW,345,1.0,1.0,68,0.00,,,0.00,Wunderground v.1.15,2013-04-03 13:30:00,
2013-04-03 07:35:00,38.8,28.8,30.10,North,353,1.0,3.0,67,0.00,,,0.00,Wunderground v.1.15,2013-04-03 13:35:00,
2013-04-03 07:45:00,39.4,29.0,30.10,North,360,2.0,2.0,66,0.00,,,0.00,Wunderground v.1.15,2013-04-03 13:45:00,
2013-04-03 07:55:00,40.1,29.3,30.10,North,354,3.0,4.0,65,0.00,,,0.00,Wunderground v.1.15,2013-04-03 13:55:00,
2013-04-03 08:00:00,40.2,29.0,30.11,NW,326,3.0,3.0,64,0.00,,,0.00,Wunderground v.1.15,2013-04-03 14:00:00,
2013-04-03 08:10:00,40.1,28.9,30.11,NNW,333,4.0,4.0,64,0.00,,,0.00,Wunderground v.1.15,2013-04-03 14:10:00,
2013-04-03 08:15:00,40.2,29.0,30.11,NNW,333,4.0,4.0,64,0.00,,,0.00,Wunderground v.1.15,2013-04-03 14:15:00,
2013-04-03 08:20:00,40.4,29.2,30.11,NNW,333,4.0,4.0,64,0.00,,,0.00,Wunderground v.1.15,2013-04-03 14:20:00,
2013-04-03 08:25:00,40.6,29.0,30.11,NW,304,3.0,4.0,63,0.00,,,0.00,Wunderground v.1.15,2013-04-03 14:25:00,
2013-04-03 08:35:00,41.1,29.1,30.12,NNE,23,3.0,4.0,62,0.00,,,0.00,Wunderground v.1.15,2013-04-03 14:35:00,
2013-04-03 08:45:00,41.7,29.6,30.12,NW,320,4.0,4.0,62,0.00,,,0.00,Wunderground v.1.15,2013-04-03 14:45:00,
2013-04-03 08:55:00,42.5,29.6,30.12,NE,34,3.0,4.0,60,0.00,,,0.00,Wunderground v.1.15,2013-04-03 14:55:00,
2013-04-03 09:00:00,42.8,29.9,30.12,North,6,3.0,4.0,60,0.00,,,0.00,Wunderground v.1.15,2013-04-03 15:00:00,
2013-04-03 09:10:00,43.6,29.8,30.12,WNW,297,3.0,3.0,58,0.00,,,0.00,Wunderground v.1.15,2013-04-03 15:10:00,
2013-04-03 09:20:00,44.6,30.3,30.13,North,356,2.0,2.0,57,0.00,,,0.00,Wunderground v.1.15,2013-04-03 15:20:00,
2013-04-03 09:30:00,45.6,29.9,30.13,WNW,291,2.0,2.0,54,0.00,,,0.00,Wunderground v.1.15,2013-04-03 15:30:00,
2013-04-03 09:35:00,45.7,30.0,30.14,WSW,240,1.0,2.0,54,0.00,,,0.00,Wunderground v.1.15,2013-04-03 15:35:00,
2013-04-03 09:45:00,46.3,30.1,30.14,West,274,1.0,1.0,53,0.00,,,0.00,Wunderground v.1.15,2013-04-03 15:45:00,
2013-04-03 09:50:00,46.9,30.2,30.14,North,1,2.0,5.0,52,0.00,,,0.00,Wunderground v.1.15,2013-04-03 15:50:00,
2013-04-03 10:00:00,47.6,29.9,30.14,WNW,293,3.0,3.0,50,0.00,,,0.00,Wunderground v.1.15,2013-04-03 16:00:00,
2013-04-03 10:10:00,48.4,29.6,30.14,NNW,333,2.0,3.0,48,0.00,,,0.00,Wunderground v.1.15,2013-04-03 16:10:00,
2013-04-03 10:20:00,48.9,29.5,30.14,NW,311,3.0,4.0,47,0.00,,,0.00,Wunderground v.1.15,2013-04-03 16:20:00,
2013-04-03 10:25:00,49.2,29.3,30.14,NW,321,4.0,4.0,46,0.00,,,0.00,Wunderground v.1.15,2013-04-03 16:25:00,
2013-04-03 10:30:00,49.8,29.3,30.14,NNW,345,3.0,3.0,45,0.00,,,0.00,Wunderground v.1.15,2013-04-03 16:30:00,
2013-04-03 10:35:00,50.1,30.1,30.14,WSW,248,3.0,3.0,46,0.00,,,0.00,Wunderground v.1.15,2013-04-03 16:35:00,
2013-04-03 10:45:00,51.1,30.5,30.14,NNW,335,3.0,4.0,45,0.00,,,0.00,Wunderground v.1.15,2013-04-03 16:45:00,
2013-04-03 10:50:00,51.3,30.7,30.14,NNE,22,2.0,4.0,45,0.00,,,0.00,Wunderground v.1.15,2013-04-03 16:50:00,
2013-04-03 10:55:00,51.3,30.1,30.13,NNW,342,3.0,4.0,44,0.00,,,0.00,Wunderground v.1.15,2013-04-03 16:55:00,
2013-04-03 11:00:00,51.3,30.1,30.14,NE,49,5.0,5.0,44,0.00,,,0.00,Wunderground v.1.15,2013-04-03 17:00:00,
2013-04-03 11:10:00,52.1,30.8,30.13,NNW,336,2.0,3.0,44,0.00,,,0.00,Wunderground v.1.15,2013-04-03 17:10:00,
2013-04-03 11:20:00,52.6,30.1,30.13,North,4,3.0,8.0,42,0.00,,,0.00,Wunderground v.1.15,2013-04-03 17:20:00,
2013-04-03 11:30:00,52.9,29.8,30.13,NNE,14,4.0,6.0,41,0.00,,,0.00,Wunderground v.1.15,2013-04-03 17:30:00,
2013-04-03 11:40:00,53.6,30.4,30.13,East,94,4.0,4.0,41,0.00,,,0.00,Wunderground v.1.15,2013-04-03 17:40:00,
2013-04-03 11:50:00,55.4,30.2,30.12,NNE,12,2.0,2.0,38,0.00,,,0.00,Wunderground v.1.15,2013-04-03 17:50:00,
2013-04-03 12:00:00,56.1,30.2,30.12,NNW,344,2.0,6.0,37,0.00,,,0.00,Wunderground v.1.15,2013-04-03 18:00:00,
2013-04-03 12:10:00,55.8,29.9,30.12,North,354,3.0,3.0,37,0.00,,,0.00,Wunderground v.1.15,2013-04-03 18:10:00,
2013-04-03 12:15:00,56.3,31.0,30.11,WNW,291,2.0,3.0,38,0.00,,,0.00,Wunderground v.1.15,2013-04-03 18:15:00,
2013-04-03 12:20:00,56.6,29.9,30.11,NW,323,2.0,3.0,36,0.00,,,0.00,Wunderground v.1.15,2013-04-03 18:20:00,
2013-04-03 12:30:00,57.1,29.7,30.11,WNW,297,2.0,2.0,35,0.00,,,0.00,Wunderground v.1.15,2013-04-03 18:30:00,
2013-04-03 12:40:00,58.4,30.1,30.11,West,266,3.0,3.0,34,0.00,,,0.00,Wunderground v.1.15,2013-04-03 18:40:00,
2013-04-03 12:45:00,58.3,28.5,30.10,WNW,296,3.0,3.0,32,0.00,,,0.00,Wunderground v.1.15,2013-04-03 18:45:00,
2013-04-03 12:55:00,57.7,28.8,30.10,North,354,4.0,4.0,33,0.00,,,0.00,Wunderground v.1.15,2013-04-03 18:55:00,
2013-04-03 13:00:00,58.1,28.4,30.10,WSW,255,3.0,6.0,32,0.00,,,0.00,Wunderground v.1.15,2013-04-03 19:00:00,
2013-04-03 13:10:00,58.6,28.8,30.09,ESE,110,2.0,3.0,32,0.00,,,0.00,Wunderground v.1.15,2013-04-03 19:10:00,
2013-04-03 13:15:00,59.3,28.6,30.09,North,349,2.0,3.0,31,0.00,,,0.00,Wunderground v.1.15,2013-04-03 19:15:00,
2013-04-03 13:25:00,60.1,27.7,30.09,NNW,348,2.0,4.0,29,0.00,,,0.00,Wunderground v.1.15,2013-04-03 19:25:00,
2013-04-03 13:35:00,61.0,28.5,30.08,NE,41,3.0,3.0,29,0.00,,,0.00,Wunderground v.1.15,2013-04-03 19:35:00,
2013-04-03 13:40:00,60.2,27.8,30.08,NNW,345,4.0,4.0,29,0.00,,,0.00,Wunderground v.1.15,2013-04-03 19:40:00,
2013-04-03 13:45:00,60.4,28.8,30.08,NNE,32,4.0,4.0,30,0.00,,,0.00,Wunderground v.1.15,2013-04-03 19:45:00,
2013-04-03 13:55:00,59.8,26.6,30.08,North,360,3.0,3.0,28,0.00,,,0.00,Wunderground v.1.15,2013-04-03 19:55:00,
2013-04-03 14:00:00,60.3,27.0,30.08,WNW,302,4.0,6.0,28,0.00,,,0.00,Wunderground v.1.15,2013-04-03 20:00:00,
2013-04-03 14:15:00,61.7,25.5,30.08,North,350,2.0,3.0,25,0.00,,,0.00,Wunderground v.1.15,2013-04-03 20:15:00,
2013-04-03 14:20:00,61.7,24.5,30.07,WNW,294,2.0,2.0,24,0.00,,,0.00,Wunderground v.1.15,2013-04-03 20:20:00,
2013-04-03 14:30:00,61.6,23.4,30.07,NNW,342,3.0,5.0,23,0.00,,,0.00,Wunderground v.1.15,2013-04-03 20:30:00,
2013-04-03 14:35:00,61.3,24.2,30.07,SSE,165,3.0,5.0,24,0.00,,,0.00,Wunderground v.1.15,2013-04-03 20:35:00,
2013-04-03 14:45:00,62.2,22.8,30.06,SSW,213,5.0,5.0,22,0.00,,,0.00,Wunderground v.1.15,2013-04-03 20:45:00,
2013-04-03 15:00:00,64.0,22.1,30.06,West,278,5.0,5.0,20,0.00,,,0.00,Wunderground v.1.15,2013-04-03 21:00:00,
2013-04-03 15:10:00,63.8,20.7,30.06,NNW,339,5.0,5.0,19,0.00,,,0.00,Wunderground v.1.15,2013-04-03 21:10:00,
2013-04-03 15:20:00,63.3,21.5,30.06,NNW,337,6.0,6.0,20,0.00,,,0.00,Wunderground v.1.15,2013-04-03 21:20:00,
2013-04-03 15:30:00,63.2,21.4,30.05,NNE,25,6.0,11.0,20,0.00,,,0.00,Wunderground v.1.15,2013-04-03 21:30:00,
2013-04-03 15:40:00,62.2,20.6,30.05,NW,326,7.0,7.0,20,0.00,,,0.00,Wunderground v.1.15,2013-04-03 21:40:00,
2013-04-03 15:50:00,62.6,19.7,30.05,WNW,302,7.0,7.0,19,0.00,,,0.00,Wunderground v.1.15,2013-04-03 21:50:00,
2013-04-03 15:55:00,63.1,21.3,30.05,WNW,303,8.0,8.0,20,0.00,,,0.00,Wunderground v.1.15,2013-04-03 21:55:00,
2013-04-03 16:00:00,63.9,22.0,30.05,NNW,328,7.0,10.0,20,0.00,,,0.00,Wunderground v.1.15,2013-04-03 22:00:00,
2013-04-03 16:10:00,64.6,21.4,30.04,WNW,284,4.0,4.0,19,0.00,,,0.00,Wunderground v.1.15,2013-04-03 22:10:00,
2013-04-03 16:20:00,65.0,19.1,30.04,NNW,335,7.0,7.0,17,0.00,,,0.00,Wunderground v.1.15,2013-04-03 22:20:00,
2013-04-03 16:30:00,64.7,18.8,30.03,SW,214,5.0,5.0,17,0.00,,,0.00,Wunderground v.1.15,2013-04-03 22:30:00,
2013-04-03 16:40:00,65.1,19.2,30.03,West,278,6.0,6.0,17,0.00,,,0.00,Wunderground v.1.15,2013-04-03 22:40:00,
2013-04-03 16:45:00,65.3,19.3,30.03,NNW,335,6.0,10.0,17,0.00,,,0.00,Wunderground v.1.15,2013-04-03 22:45:00,
2013-04-03 16:55:00,65.4,19.4,30.03,NW,307,6.0,6.0,17,0.00,,,0.00,Wunderground v.1.15,2013-04-03 22:55:00,
2013-04-03 17:00:00,65.7,18.2,30.03,West,263,6.0,6.0,16,0.00,,,0.00,Wunderground v.1.15,2013-04-03 23:00:00,
2013-04-03 17:10:00,65.3,17.9,30.03,NW,316,6.0,12.0,16,0.00,,,0.00,Wunderground v.1.15,2013-04-03 23:10:00,
2013-04-03 17:20:00,65.3,19.3,30.03,WNW,301,5.0,5.0,17,0.00,,,0.00,Wunderground v.1.15,2013-04-03 23:20:00,
2013-04-03 17:30:00,65.5,18.1,30.04,NW,326,6.0,8.0,16,0.00,,,0.00,Wunderground v.1.15,2013-04-03 23:30:00,
2013-04-03 17:35:00,65.1,19.2,30.03,NW,304,4.0,8.0,17,0.00,,,0.00,Wunderground v.1.15,2013-04-03 23:35:00,
2013-04-03 17:45:00,65.6,18.1,30.04,NW,323,5.0,7.0,16,0.00,,,0.00,Wunderground v.1.15,2013-04-03 23:45:00,
2013-04-03 17:55:00,65.4,18.0,30.04,WSW,243,4.0,6.0,16,0.00,,,0.00,Wunderground v.1.15,2013-04-03 23:55:00,
2013-04-03 18:00:00,65.9,18.4,30.03,North,5,3.0,3.0,16,0.00,,,0.00,Wunderground v.1.15,2013-04-04 00:00:00,
2013-04-03 18:10:00,65.1,19.2,30.04,NW,321,6.0,6.0,17,0.00,,,0.00,Wunderground v.1.15,2013-04-04 00:10:00,
2013-04-03 18:20:00,65.4,20.7,30.04,NNE,13,3.0,3.0,18,0.00,,,0.00,Wunderground v.1.15,2013-04-04 00:20:00,
2013-04-03 18:30:00,65.4,18.0,30.04,NW,322,4.0,5.0,16,0.00,,,0.00,Wunderground v.1.15,2013-04-04 00:30:00,
2013-04-03 18:35:00,65.0,19.1,30.05,WNW,298,7.0,7.0,17,0.00,,,0.00,Wunderground v.1.15,2013-04-04 00:35:00,
2013-04-03 18:45:00,65.3,17.9,30.05,NW,320,4.0,6.0,16,0.00,,,0.00,Wunderground v.1.15,2013-04-04 00:45:00,
2013-04-03 18:55:00,65.5,18.1,30.05,WNW,303,3.0,4.0,16,0.00,,,0.00,Wunderground v.1.15,2013-04-04 00:55:00,
2013-04-03 19:00:00,65.4,18.0,30.05,NW,308,3.0,4.0,16,0.00,,,0.00,Wunderground v.1.15,2013-04-04 01:00:00,
2013-04-03 19:10:00,65.0,19.1,30.05,NNW,342,6.0,6.0,17,0.00,,,0.00,Wunderground v.1.15,2013-04-04 01:10:00,
2013-04-03 19:20:00,63.2,20.2,30.05,North,352,8.0,8.0,19,0.00,,,0.00,Wunderground v.1.15,2013-04-04 01:20:00,
2013-04-03 19:25:00,62.6,20.9,30.05,NNW,348,7.0,8.0,20,0.00,,,0.00,Wunderground v.1.15,2013-04-04 01:25:00,
2013-04-03 19:35:00,61.8,22.5,30.06,NNW,337,4.0,6.0,22,0.00,,,0.00,Wunderground v.1.15,2013-04-04 01:35:00,
2013-04-03 19:40:00,61.5,22.3,30.06,North,8,5.0,5.0,22,0.00,,,0.00,Wunderground v.1.15,2013-04-04 01:40:00,
2013-04-03 19:45:00,61.3,22.1,30.06,North,8,5.0,5.0,22,0.00,,,0.00,Wunderground v.1.15,2013-04-04 01:45:00,
2013-04-03 19:55:00,60.6,22.6,30.06,NE,40,1.0,3.0,23,0.00,,,0.00,Wunderground v.1.15,2013-04-04 01:55:00,
2013-04-03 20:00:00,60.3,22.3,30.06,NE,46,1.0,1.0,23,0.00,,,0.00,Wunderground v.1.15,2013-04-04 02:00:00,
2013-04-03 20:10:00,59.7,22.8,30.07,NNE,20,0.0,0.0,24,0.00,,,0.00,Wunderground v.1.15,2013-04-04 02:10:00,
2013-04-03 20:20:00,58.8,23.0,30.07,NNE,32,0.0,0.0,25,0.00,,,0.00,Wunderground v.1.15,2013-04-04 02:20:00,
2013-04-03 20:25:00,58.1,22.4,30.07,NNE,32,0.0,0.0,25,0.00,,,0.00,Wunderground v.1.15,2013-04-04 02:25:00,
2013-04-03 20:35:00,57.0,23.3,30.08,NNE,32,0.0,0.0,27,0.00,,,0.00,Wunderground v.1.15,2013-04-04 02:35:00,
2013-04-03 20:45:00,55.7,23.1,30.08,NNE,32,0.0,0.0,28,0.00,,,0.00,Wunderground v.1.15,2013-04-04 02:45:00,
2013-04-03 20:50:00,55.0,23.3,30.09,NNE,32,0.0,0.0,29,0.00,,,0.00,Wunderground v.1.15,2013-04-04 02:50:00,
2013-04-03 21:00:00,55.0,23.3,30.09,NNE,32,0.0,0.0,29,0.00,,,0.00,Wunderground v.1.15,2013-04-04 03:00:00,
2013-04-03 21:10:00,55.0,24.1,30.10,ENE,74,0.0,0.0,30,0.00,,,0.00,Wunderground v.1.15,2013-04-04 03:10:00,
2013-04-03 21:15:00,55.1,24.2,30.10,ENE,73,0.0,0.0,30,0.00,,,0.00,Wunderground v.1.15,2013-04-04 03:15:00,
2013-04-03 21:25:00,54.0,24.0,30.11,ENE,73,0.0,0.0,31,0.00,,,0.00,Wunderground v.1.15,2013-04-04 03:25:00,
2013-04-03 21:35:00,53.2,24.1,30.12,ENE,74,0.0,0.0,32,0.00,,,0.00,Wunderground v.1.15,2013-04-04 03:35:00,
2013-04-03 21:40:00,52.8,23.7,30.12,ENE,72,0.0,0.0,32,0.00,,,0.00,Wunderground v.1.15,2013-04-04 03:40:00,
2013-04-03 21:50:00,52.3,24.0,30.12,ENE,74,0.0,0.0,33,0.00,,,0.00,Wunderground v.1.15,2013-04-04 03:50:00,
2013-04-03 21:55:00,52.0,23.0,30.13,ENE,73,0.0,0.0,32,0.00,,,0.00,Wunderground v.1.15,2013-04-04 03:55:00,
2013-04-03 22:00:00,51.6,24.1,30.13,ENE,72,0.0,0.0,34,0.00,,,0.00,Wunderground v.1.15,2013-04-04 04:00:00,
2013-04-03 22:10:00,51.2,23.8,30.14,ENE,72,0.0,0.0,34,0.00,,,0.00,Wunderground v.1.15,2013-04-04 04:10:00,
2013-04-03 22:15:00,51.0,24.3,30.14,ENE,72,0.0,0.0,35,0.00,,,0.00,Wunderground v.1.15,2013-04-04 04:15:00,
2013-04-03 22:25:00,51.0,23.6,30.14,WSW,241,0.0,0.0,34,0.00,,,0.00,Wunderground v.1.15,2013-04-04 04:25:00,
2013-04-03 22:35:00,51.1,23.0,30.14,North,8,0.0,0.0,33,0.00,,,0.00,Wunderground v.1.15,2013-04-04 04:35:00,
2013-04-03 22:40:00,51.0,22.9,30.15,North,8,0.0,0.0,33,0.00,,,0.00,Wunderground v.1.15,2013-04-04 04:40:00,
2013-04-03 22:50:00,50.3,23.7,30.15,North,9,0.0,0.0,35,0.00,,,0.00,Wunderground v.1.15,2013-04-04 04:50:00,
2013-04-03 23:00:00,49.9,23.3,30.15,North,8,0.0,0.0,35,0.00,,,0.00,Wunderground v.1.15,2013-04-04 05:00:00,
2013-04-03 23:10:00,50.9,23.5,30.16,NNW,347,2.0,4.0,34,0.00,,,0.00,Wunderground v.1.15,2013-04-04 05:10:00,
2013-04-03 23:20:00,52.1,23.1,30.16,NNE,18,4.0,5.0,32,0.00,,,0.00,Wunderground v.1.15,2013-04-04 05:20:00,
2013-04-03 23:25:00,52.2,23.2,30.16,NNE,12,3.0,5.0,32,0.00,,,0.00,Wunderground v.1.15,2013-04-04 05:25:00,
2013-04-03 23:35:00,51.8,22.8,30.16,NNW,346,1.0,2.0,32,0.00,,,0.00,Wunderground v.1.15,2013-04-04 05:35:00,
2013-04-03 23:40:00,51.2,23.0,30.16,NNW,345,0.0,0.0,33,0.00,,,0.00,Wunderground v.1.15,2013-04-04 05:40:00,
2013-04-03 23:50:00,50.2,22.9,30.16,SE,141,0.0,0.0,34,0.00,,,0.00,Wunderground v.1.15,2013-04-04 05:50:00,